Theta_e
308 307 307 308 308 308 308 308 308 308 308 308 308 307 307 307 306 306 306 305 304 303 302 300 299 297 296 295 295 295 295 295 295 295 295 295 295 295 295 296 295 295
308 308 307 307 307 307 307 307 307 307 307 307 307 307 306 306 306 305 305 305 304 303 302 301 299 298 297 296 295 295 295 295 295 295 295 295 295 295 295 295 295 295
309 308 308 307 307 307 307 307 307 307 307 307 306 306 306 305 305 305 305 304 304 303 302 301 300 298 297 296 295 295 294 294 295 295 295 295 295 295 295 295 295 295
308 308 308 308 307 307 307 306 306 306 307 306 306 306 305 305 305 304 304 304 303 303 303 302 300 299 297 296 295 294 294 294 294 294 294 295 295 295 295 295 295 295
307 308 308 308 307 307 307 306 306 306 306 306 306 306 306 305 304 304 304 303 303 303 302 302 301 299 298 297 295 294 294 294 294 294 294 294 294 294 295 295 295 295
307 307 307 307 307 307 307 306 306 306 306 306 306 306 306 305 305 304 304 303 303 302 302 302 301 300 299 297 296 294 294 294 293 293 294 294 294 294 294 294 294 294
307 306 306 306 306 306 307 307 306 306 306 306 306 305 305 305 305 304 304 303 302 302 302 302 301 300 299 298 296 295 294 293 293 293 293 294 294 294 294 294 294 294
305 306 306 306 306 306 306 307 307 307 306 306 306 305 305 305 304 304 304 303 302 302 302 302 301 301 300 299 298 296 294 294 293 293 293 293 293 294 294 294 294 294
303 304 304 305 306 306 307 307 307 307 307 307 307 307 306 305 305 304 304 303 303 302 302 302 302 301 300 299 298 297 296 295 294 293 293 293 293 293 294 294 294 294
305 304 303 303 304 305 307 308 308 307 307 307 307 307 307 306 306 305 304 304 303 303 302 302 302 301 300 300 299 298 297 296 294 293 293 293 293 293 293 294 294 294
307 306 305 304 304 304 305 306 306 306 306 306 306 307 307 306 306 307 306 305 304 304 304 303 302 301 301 300 299 298 297 296 295 294 293 292 293 293 293 293 293 293
306 305 305 305 305 305 305 305 305 304 304 304 304 305 305 305 305 306 306 307 307 306 304 304 302 301 301 301 300 298 298 297 296 294 293 292 292 292 293 293 293 293
305 304 304 304 304 305 305 305 304 303 303 303 302 302 303 304 304 304 305 306 306 306 306 305 303 302 301 301 300 299 298 298 297 296 294 293 292 292 292 292 293 293
304 304 304 303 303 303 303 304 304 303 303 302 302 302 302 302 302 303 303 303 303 304 305 304 303 302 301 300 300 299 299 298 298 297 296 294 293 292 292 292 292 292
303 303 303 302 301 301 302 303 303 303 302 302 301 301 301 301 300 300 300 300 301 301 301 302 303 303 302 301 300 300 299 299 298 297 296 295 294 292 291 291 292 292
301 301 301 300 300 300 300 301 301 301 301 301 301 300 300 299 299 298 298 299 299 299 299 300 301 303 302 301 300 300 299 299 298 297 296 295 294 293 292 291 291 291
300 300 299 299 298 298 298 299 299 300 300 300 300 299 299 298 298 298 298 298 297 297 298 299 300 301 301 300 299 298 298 298 297 296 295 295 294 293 292 291 291 291
299 299 298 298 297 297 297 297 298 298 298 298 298 298 298 297 297 297 297 296 296 296 297 297 298 298 298 298 297 296 296 296 296 296 295 295 294 293 292 291 290 291
297 298 298 297 296 296 296 296 296 296 297 297 297 297 297 297 296 296 295 295 295 295 295 296 296 296 296 296 296 296 295 295 295 295 295 294 294 293 292 291 290 290
296 296 297 297 296 295 295 294 295 295 295 295 296 296 296 296 295 295 295 295 295 294 294 294 295 295 295 295 295 295 295 295 294 294 294 294 294 293 292 290 289 290
295 295 295 295 296 295 295 294 294 294 294 294 295 295 295 295 295 295 295 295 294 294 294 294 295 295 294 294 294 294 294 294 293 293 293 293 293 292 291 290 289 289
294 294 294 294 295 295 295 294 293 293 293 293 293 294 294 294 294 294 294 294 294 294 294 294 294 294 294 293 293 293 293 292 292 292 292 292 292 291 290 289 289 289
293 293 294 294 294 294 295 295 293 292 292 292 292 293 293 293 293 293 293 293 293 293 294 294 294 294 293 293 292 292 292 292 292 292 292 291 291 291 290 289 288 288
292 292 293 293 294 294 294 295 294 293 292 291 291 291 292 292 292 292 292 292 292 293 293 293 293 293 292 292 292 292 292 292 292 291 291 291 291 290 290 289 288 287
291 291 292 293 293 294 294 294 294 294 292 291 290 291 291 291 291 291 291 291 292 292 292 292 292 292 292 292 292 291 291 291 291 291 291 290 290 290 289 288 287 286
290 290 291 292 292 293 293 293 294 294 293 292 290 290 290 290 290 290 290 291 291 291 291 291 291 291 291 291 291 291 291 291 291 291 291 290 290 289 288 287 286 286
Wind_Speed
33 35 37 38 38 39 39 38 38 38 37 37 37 36 36 36 37 39 41 42 43 43 44 44 43 43 43 43 43 43 42 41 39 37 35 33 31 29 27 25 23 21
31 34 37 38 40 40 40 39 38 37 36 36 36 35 35 36 36 38 39 40 41 42 43 44 43 43 43 44 44 44 44 42 41 39 36 34 32 31 29 27 24 22
29 32 35 37 39 40 41 40 39 38 37 37 37 37 37 37 36 37 38 39 40 40 41 42 43 43 43 44 45 45 45 44 43 41 38 36 34 32 30 28 26 24
29 30 33 35 37 39 40 41 40 40 39 39 39 38 38 37 37 37 37 38 39 39 40 41 42 43 43 44 45 46 46 45 43 42 40 38 36 34 32 30 28 26
29 30 32 34 36 38 40 41 41 41 41 40 39 39 39 39 39 38 38 38 38 38 39 40 41 42 43 44 45 46 47 46 45 43 42 40 38 36 34 32 30 28
28 30 32 33 35 37 40 41 41 42 42 42 41 41 41 40 40 40 40 39 38 38 39 40 41 42 43 44 46 47 47 47 46 45 43 42 39 37 35 34 32 29
28 29 31 33 35 37 38 40 41 43 43 43 44 44 43 43 43 42 41 40 39 39 39 40 41 41 42 44 46 47 48 48 47 46 45 44 42 40 38 36 33 30
34 33 33 35 37 39 40 40 40 41 43 44 45 46 46 46 45 44 43 42 41 40 40 39 40 40 41 43 45 47 48 49 49 48 48 46 44 43 41 38 35 32
40 40 39 39 40 41 41 41 41 42 43 44 45 46 47 48 47 46 45 45 44 43 42 40 40 40 41 43 45 46 48 49 50 50 50 49 47 45 43 40 37 35
38 41 44 45 46 45 43 43 43 44 45 46 47 48 49 49 48 48 48 48 47 46 44 42 41 41 42 44 44 45 46 48 50 51 51 50 49 47 45 42 40 38
33 37 41 44 46 48 48 48 49 48 47 49 50 51 52 51 50 49 50 51 50 48 47 45 44 43 43 44 44 44 45 47 48 50 51 51 50 48 47 45 42 40
31 33 36 40 42 44 47 50 53 53 52 53 53 53 54 54 54 53 52 52 52 51 49 48 46 44 43 43 43 43 44 46 47 49 51 51 51 50 49 47 44 41
32 32 35 37 39 40 43 47 51 54 55 55 54 55 56 57 57 57 56 54 53 52 51 50 48 46 45 43 43 43 44 45 46 48 50 51 52 51 50 49 46 43
33 32 33 35 37 38 40 43 46 50 54 55 55 55 57 58 59 59 58 57 56 54 53 52 50 49 47 45 44 44 44 45 46 47 49 51 52 52 52 50 48 45
33 32 31 32 35 37 39 41 42 45 49 54 56 56 57 58 59 59 59 59 58 57 55 53 53 52 50 49 47 47 46 47 47 48 49 50 52 53 53 52 50 47
34 32 30 30 33 35 37 39 40 41 45 50 55 56 57 57 57 58 59 59 59 58 57 56 55 55 54 52 50 49 48 48 49 49 50 51 52 53 55 54 52 49
35 33 30 29 31 33 35 37 38 40 43 47 51 53 54 55 56 58 58 59 59 58 57 58 57 57 56 54 52 50 49 48 49 50 50 51 52 53 55 55 54 51
37 34 31 29 29 30 32 34 36 39 42 45 47 49 51 53 55 56 57 57 58 58 58 58 58 57 56 54 52 50 48 48 48 49 50 51 52 53 55 56 55 52
38 37 35 32 28 27 29 31 34 38 40 42 44 45 47 51 53 54 55 55 56 57 57 56 56 55 54 53 51 49 48 48 48 49 49 50 51 52 54 56 56 54
39 39 39 37 33 29 27 28 31 34 37 40 41 43 45 49 51 52 53 53 54 55 55 54 54 53 52 52 50 48 48 48 48 48 48 48 49 51 53 56 56 53
41 41 40 41 40 36 31 28 29 31 34 37 39 41 43 46 48 50 51 51 52 52 52 52 52 51 51 51 49 48 48 48 48 49 48 49 50 50 51 54 54 52
41 42 42 42 42 41 37 31 28 29 31 34 37 39 41 44 46 48 49 49 49 49 49 50 50 50 50 50 48 48 49 49 50 50 50 50 49 48 49 51 52 51
40 41 42 42 42 41 40 36 31 28 29 31 35 38 40 42 44 45 46 47 47 47 47 48 49 49 49 48 47 48 49 50 51 51 51 50 48 47 47 50 52 51
40 41 41 41 41 40 40 38 34 29 27 29 32 35 38 39 41 42 44 45 45 46 46 46 47 48 47 47 47 47 49 51 50 50 50 49 47 47 47 50 52 50
41 41 41 41 40 39 38 37 36 32 27 27 29 32 35 37 38 40 42 43 43 44 44 44 45 46 46 46 47 47 49 50 49 49 49 49 48 48 49 51 51 48
42 41 41 41 40 39 38 36 35 33 29 26 26 29 32 35 37 38 39 40 42 42 43 43 45 45 45 45 45 46 49 50 49 48 48 48 49 50 51 51 50 47
Wind_Direction
248 245 244 243 242 242 241 240 240 240 241 241 242 241 241 239 236 233 232 231 231 231 231 232 232 231 230 230 230 230 230 230 231 233 234 235 237 240 243 248 252 255
250 246 245 245 244 243 243 242 242 243 244 244 245 244 243 241 239 237 236 234 233 232 232 232 232 232 231 231 231 230 230 230 230 231 232 234 236 240 243 247 250 253
252 250 248 247 246 245 245 245 244 244 245 245 245 244 243 242 242 240 239 238 236 236 234 234 233 233 232 232 232 231 231 230 230 231 232 233 236 239 242 245 248 252
256 254 252 251 250 249 248 247 246 246 246 245 244 244 244 244 243 241 240 238 237 237 236 236 235 234 233 232 232 231 231 231 230 231 231 233 235 238 241 243 246 249
261 258 255 254 252 251 250 249 249 249 248 248 247 246 246 245 244 242 239 237 235 234 234 235 235 234 233 233 232 231 231 230 229 230 231 233 235 237 240 242 244 247
263 259 257 255 253 252 252 252 252 251 251 251 249 248 247 246 245 243 241 238 235 233 232 232 233 233 233 233 232 232 231 230 230 230 231 233 234 236 239 241 243 245
271 266 261 258 256 255 255 255 255 254 254 253 253 251 250 249 247 246 244 242 239 235 232 231 231 232 232 232 232 232 231 231 230 230 231 232 233 235 237 239 241 243
277 273 268 264 261 259 258 258 258 257 256 255 255 254 253 251 250 249 248 246 243 239 235 232 231 231 231 231 232 232 232 231 231 230 230 231 232 233 235 237 239 241
280 275 271 267 264 263 263 263 262 260 257 256 256 256 255 254 252 250 249 248 246 243 238 235 232 230 230 230 231 231 232 232 232 231 231 232 232 233 234 236 238 240
282 278 273 270 266 265 266 268 266 261 259 257 256 256 255 254 254 252 251 249 247 245 242 237 233 230 229 229 230 230 231 232 233 232 232 233 233 234 235 236 237 238
280 277 274 272 271 270 270 269 267 263 261 258 256 256 255 254 253 252 251 250 248 246 244 240 236 231 229 228 228 229 230 231 232 233 233 234 234 234 235 236 237 238
282 278 275 274 274 275 275 273 269 264 261 258 256 256 255 254 252 250 249 250 249 248 245 243 239 234 231 230 228 228 229 229 231 232 233 234 234 235 235 236 236 236
294 288 284 281 278 276 276 275 272 267 263 261 259 257 256 255 253 250 248 248 248 248 247 245 242 238 234 230 228 227 227 228 230 231 232 233 234 234 235 235 235 235
306 297 290 285 282 278 275 274 273 271 267 264 262 260 259 257 255 253 250 247 246 245 245 244 243 240 236 231 227 226 226 228 229 230 230 231 232 233 234 234 234 233
314 303 295 290 285 280 276 273 272 271 268 265 263 262 261 258 255 253 251 249 246 244 242 241 241 241 239 234 229 226 225 226 227 228 229 230 230 231 232 232 232 232
321 311 302 296 289 284 280 277 274 271 268 265 263 262 261 258 255 252 250 249 247 245 243 241 239 239 239 236 233 229 227 226 225 226 227 228 229 229 229 230 230 230
331 321 309 301 295 291 286 281 277 272 268 265 262 261 260 257 254 252 250 249 248 246 244 243 242 240 237 235 233 230 228 227 226 227 226 227 228 228 229 229 228 228
341 334 323 312 305 298 292 286 280 274 269 265 262 260 259 256 254 252 250 248 247 246 245 244 244 242 240 237 234 230 228 227 228 229 228 228 228 228 228 228 227 227
345 344 340 331 320 309 299 291 283 276 270 267 264 262 259 256 253 251 248 247 246 245 245 244 244 244 242 240 237 233 229 228 228 229 230 230 230 230 229 228 227 226
339 342 345 344 338 327 312 300 291 282 276 271 266 262 258 255 252 249 247 246 245 245 244 245 245 245 244 241 237 234 231 229 229 230 230 231 232 232 230 229 227 227
333 335 338 342 344 341 330 314 302 292 283 275 269 264 260 256 253 250 248 247 245 245 245 246 247 246 244 241 238 235 233 231 230 230 231 231 232 232 231 229 228 228
330 330 332 335 339 342 340 330 314 301 291 281 273 267 262 257 253 251 249 247 246 245 245 246 246 245 243 240 237 235 233 231 230 230 231 231 231 231 230 228 228 228
326 327 327 329 332 336 339 337 327 311 297 286 276 269 263 258 254 252 249 247 246 245 244 244 244 243 241 239 236 234 233 232 231 230 231 231 231 230 229 227 226 227
322 322 323 324 327 329 333 336 333 322 306 291 281 273 266 261 257 253 250 248 246 245 244 243 243 242 239 237 235 232 232 233 232 231 231 230 230 229 227 225 225 224
318 318 318 319 321 323 326 330 331 328 316 298 285 276 269 263 258 253 251 248 246 244 243 242 242 241 238 236 233 231 232 233 232 230 230 229 228 227 225 223 222 222
315 314 314 315 315 317 320 323 326 327 322 308 292 281 271 264 259 254 251 249 246 244 242 241 241 239 237 234 232 230 232 233 232 229 228 228 228 226 223 221 220 220